Regional Weather Roundup
Issued by NWS

Home | Current Version | Previous Version | Graphics & Text | Print | Product List | Glossary On
Versions: 1 2 3 4 5 6 7 8 9 10 11 12 13 14 15 16 17 18 19 20 21 22 23 24 25 26 27 28 29 30 31 32 33 34 35 36 37 38 39 40 41 42 43 44 45 46 47 48 49 50
000
ASUS45 KCYS 311110
RWRWY

WYOMING REGIONAL WEATHER ROUNDUP
NATIONAL WEATHER SERVICE CHEYENNE WY
400 AM MST SAT JAN 31 2015

NOTE:  "FAIR" INDICATES FEW OR NO CLOUDS BELOW 12,000 FEET
WITH NO SIGNIFICANT WEATHER AND/OR OBSTRUCTIONS TO VISIBILITY.

WYZ001-311200-
YELLOWSTONE NATIONAL PARK

CITY           SKY/WX    TMP DP  RH WIND       PRES   REMARKS
LK YELLOWSTONE   N/A     -7 -13  75 CALM      30.05F
W YELLOWSTONE  NOT AVBL

$$
WYZ002>013-054>058-071-098>099-311200-
NORTHERN WYOMING

CITY           SKY/WX    TMP DP  RH WIND       PRES   REMARKS
JACKSON        FAIR       9   7  92 NE9       30.05S WCI  -5
CODY           FAIR      23  18  80 NE8       29.95R WCI  14
GREYBULL       FOG       25  22  88 CALM      29.97F VSB 1/4
WORLAND        FOG       18  16  92 CALM      29.96F VSB 1/4
SHERIDAN       FAIR      26  20  77 W7        29.93S WCI  18
BUFFALO        FAIR      33  12  41 SE5       29.89F WCI  29
GILLETTE       FAIR      31  23  72 S10       29.94F WCI  22
HULETT           N/A    N/A N/A N/A MISG        N/A
NEWCASTLE      FAIR      28  23  80 CALM      29.99F

$$
WYZ014>020-022>026-101>103-311200-
CENTRAL WYOMING

CITY           SKY/WX    TMP DP  RH WIND       PRES   REMARKS
BIG PINEY      CLOUDY    25  23  92 S5        29.97F WCI  19
PINEDALE       PTSUNNY   21  14  73 W3        29.99S
DUBOIS         FAIR      23  10  58 NW13      29.96F WCI  11
LANDER         CLOUDY    29  24  82 CALM      29.95F
RIVERTON       CLOUDY    29  24  82 CALM      29.96F
CASPER         FAIR      25  22  88 W5        29.96F WCI  19
DOUGLAS        FAIR      26  24  92 CALM      29.97F

$$
WYZ021-027>030-104>119-311200-
SOUTHERN WYOMING

CITY           SKY/WX    TMP DP  RH WIND       PRES   REMARKS
EVANSTON       CLOUDY    29  26  89 CALM      29.98S
KEMMERER       CLOUDY    30  27  86 N7        29.99F WCI  23
FORT BRIDGER   LGT SNOW  29  29 100 E5        30.01F WCI  24
ROCK SPRINGS   CLOUDY    27  26  96 NW5       29.97F WCI  22
DIXON          LGT SNOW  32  32  97 SW3       29.93S
RAWLINS        CLOUDY    30  22  72 NE12      29.93F WCI  20
SARATOGA       LGT SNOW  30  30 100 NW3       29.91F
LARAMIE        CLOUDY    27  24  89 W6        29.90F WCI  20
CHEYENNE       CLOUDY    32  23  69 N6        29.92F WCI  26
TORRINGTON     FAIR      32  25  75 NW5       29.96F WCI  27
PINE BLUFFS    CLOUDY    32  27  80 NW5       29.95F WCI  27

$$


USA.gov is the U.S. government's official web portal to all federal, state and local government web resources and services.